TimePST,TemperatureF,Dew PointF,Humidity,Sea Level PressureIn,VisibilityMPH,Wind Direction,Wind SpeedMPH,Gust SpeedMPH,PrecipitationIn,Events,Conditions,WindDirDegrees,DateUTC
12:00 AM,37.4,37.4,100,30.14,20.0,SW,3.5,-,N/A,,Scattered Clouds,230,2013-02-27 08:00:00
1:00 AM,35.6,35.6,100,30.14,20.0,SW,4.6,-,N/A,,Partly Cloudy,230,2013-02-27 09:00:00
2:00 AM,35.6,33.8,93,30.14,20.0,SW,9.2,-,N/A,,Partly Cloudy,220,2013-02-27 10:00:00
3:00 AM,33.8,32.0,93,30.17,20.0,West,2.3,-,N/A,,Partly Cloudy,280,2013-02-27 11:00:00
4:00 AM,31,29,92,30.19,19,Calm,Calm,,,,Partly Cloudy,,2013-02-27 12:00:00
4:00 AM,32.0,30.2,93,30.19,20.0,Calm,Calm,-,N/A,,Partly Cloudy,0,2013-02-27 12:00:00
5:00 AM,30.2,30.2,100,30.22,20.0,Calm,Calm,-,N/A,,Scattered Clouds,0,2013-02-27 13:00:00
6:00 AM,32.0,32.0,100,30.24,20.0,Calm,Calm,-,N/A,,Scattered Clouds,0,2013-02-27 14:00:00
7:00 AM,32.0,30.2,93,30.24,20.0,Calm,Calm,-,N/A,,Mostly Cloudy,0,2013-02-27 15:00:00
8:00 AM,33.8,32.0,93,30.24,20.0,Calm,Calm,-,N/A,,Mostly Cloudy,0,2013-02-27 16:00:00
9:00 AM,37.4,35.6,93,30.27,20.0,SSW,3.5,-,N/A,,Overcast,200,2013-02-27 17:00:00
10:00 AM,41,37,80,30.27,19,South,3.5,,,,Overcast,180,2013-02-27 18:00:00
10:00 AM,41.0,37.4,87,30.27,20.0,South,5.8,-,N/A,,Overcast,170,2013-02-27 18:00:00
11:00 AM,42.8,37.4,81,30.27,20.0,SE,10.4,-,N/A,,Overcast,140,2013-02-27 19:00:00
12:00 PM,42.8,37.4,81,30.27,20.0,SE,15.0,20.7,N/A,,Overcast,140,2013-02-27 20:00:00
1:00 PM,42.8,39.2,87,30.27,20.0,SSE,10.4,-,N/A,Rain,Light Rain,150,2013-02-27 21:00:00
2:00 PM,42.8,39.2,87,30.26,20.0,SE,16.1,21.9,N/A,Rain,Light Rain,140,2013-02-27 22:00:00
3:00 PM,42.8,39.2,87,30.25,15.0,SE,18.4,-,N/A,Rain,Light Rain,130,2013-02-27 23:00:00
4:00 PM,42,38,79,30.27,15,ESE,15.0,,,Rain,Light Rain,120,2013-02-28 00:00:00
4:00 PM,42.8,37.4,81,30.27,15.0,ESE,17.3,-,N/A,Rain,Light Rain,110,2013-02-28 00:00:00
4:33 PM,-9999,-9999,N/A,-9999,15.0,SE,13.8,-,N/A,,Overcast,130,2013-02-28 00:33:00
5:00 PM,41.0,37.4,87,30.29,15.0,ESE,12.7,-,N/A,,Overcast,120,2013-02-28 01:00:00
6:00 PM,41.0,37.4,87,30.27,15.0,ESE,11.5,-,N/A,,Mostly Cloudy,120,2013-02-28 02:00:00
7:00 PM,41.0,37.4,87,30.28,15.0,ESE,11.5,-,N/A,,Overcast,120,2013-02-28 03:00:00
8:00 PM,41.0,37.4,87,30.28,20.0,SE,10.4,-,N/A,,Overcast,130,2013-02-28 04:00:00
9:00 PM,42.8,37.4,81,30.27,20.0,SE,10.4,-,N/A,,Mostly Cloudy,140,2013-02-28 05:00:00
10:00 PM,42,38,81,30.27,19,SE,12.7,,,,Partly Cloudy,140,2013-02-28 06:00:00
10:00 PM,41.0,37.4,87,30.27,20.0,SE,12.7,-,N/A,,Mostly Cloudy,140,2013-02-28 06:00:00
11:00 PM,41.0,39.2,93,30.28,20.0,SE,12.7,-,N/A,,Overcast,140,2013-02-28 07:00:00